User: anonymous   Login
Location: Unspecified
(17.6330°N, 0.0000°E)
Time: 21:33:44
(UTC+00:00)
Language:

Tiros 1 despin weight - Orbit

View from above orbital plane
View from above orbital plane
View from above satellite
View from above satellite

Ground track
Ground track

The orbit data is extracted from the following two-line orbital elements,

1   115U 60002D   19176.21336010 -.00000148  00000-0  95740-5 0  9999
2   115  48.1649 196.6854 0033670 110.6134 249.8395 14.83449973159787
Epoch (UTC): 25 June 2019 05:07:14
Eccentricity: 0.0033670
inclination: 48.1649°
perigee height: 595 km
apogee height: 642 km
right ascension of ascending node: 196.6854°
argument of perigee: 110.6134°
revolutions per day: 14.83449973
mean anomaly at epoch: 249.8395°
orbit number at epoch: 15978

The dashed part of the orbit path shows where the satellite is in the earth's shadow,  

DLR